Terug naar catalogus

ZHONGGUO YIDONG 02

ActiefCommunicatieVLEO
NORAD 69473·PAYLOAD·🇨🇳 China
Deze satellietnaam is nog niet bevestigd door officiële bronnen.

Gelanceerd Jun 9, 2026 vanaf Jiuquan Satellite Launch Center

Loading…

Volgende Passages (komende 24 uur)

TLE

VersSource: Space-Track

Epoch: Sep 14, 2026, 14:22 UTC

1 69473U 26128B   26257.59921746  .00013222  00000-0  20150-3 0  9994
2 69473  55.0006 252.7775 0011753 131.6309 228.5735 15.54823981 15129

Volg ZHONGGUO YIDONG 02 in realtime met AllMySat

Download on the App Store